Wind_Speed
46 45 43 41 39 38 37 37 37 37 36 35 36 35 33 30 28 26 22 20 23 24 22 21 21 20 20 21 20 20 21 24 24 19 18 20 22 20 19 16 16 14 14 16 17
46 48 48 46 43 40 39 39 38 37 37 36 36 36 35 35 32 28 21 25 25 25 24 23 22 22 22 23 24 25 28 28 25 18 16 21 25 25 23 21 19 18 19 22 23
44 45 50 50 48 44 41 40 39 37 37 37 37 37 37 37 36 28 27 27 25 26 26 25 25 24 25 25 25 28 31 29 26 15 20 23 22 24 24 26 21 22 21 24 24
46 46 47 49 51 51 47 42 41 40 38 37 37 38 37 37 31 25 27 27 26 27 27 27 27 27 27 28 27 30 30 31 28 25 23 21 23 24 22 23 18 20 24 24 25
48 48 48 48 45 46 49 50 43 39 40 40 39 37 39 42 43 25 14 16 22 28 29 28 29 28 30 30 29 32 31 32 30 27 27 28 26 25 26 20 20 24 22 23 24
48 49 49 49 48 47 44 39 47 44 40 39 41 41 42 49 38 35 35 20 16 21 28 30 30 30 31 32 32 32 32 34 34 31 29 28 27 27 23 21 24 22 20 19 19
45 47 49 50 50 48 49 45 42 41 43 42 45 42 47 52 39 31 35 34 27 18 21 26 28 31 31 32 33 33 35 35 36 34 32 31 34 33 22 26 24 24 16 16 18
44 44 45 47 49 50 49 50 52 43 41 41 35 41 56 52 44 44 37 27 38 32 24 22 26 29 32 29 30 30 32 35 36 34 33 30 39 31 26 25 24 21 18 18 18
42 43 43 43 45 47 49 49 51 52 44 48 44 42 56 50 52 43 40 38 33 33 37 27 26 28 31 33 30 29 20 25 35 34 33 33 34 31 28 26 24 22 21 19 19
35 36 38 39 40 42 45 47 47 49 54 49 42 44 56 56 45 48 42 40 39 36 31 43 35 34 36 36 34 27 24 35 37 25 28 31 40 35 32 29 25 24 21 20 21
28 28 30 32 34 35 37 40 42 43 49 58 55 54 32 23 12 33 41 36 43 43 42 37 42 52 49 45 39 33 27 31 36 33 35 38 38 35 37 34 30 27 22 23 24
23 24 26 29 29 29 28 34 34 31 31 48 58 56 45 45 29 26 24 41 44 53 46 41 50 52 50 45 40 36 38 41 37 36 33 37 44 43 43 42 38 31 29 29 30
25 25 27 27 28 26 26 27 28 27 28 32 45 58 64 51 46 34 31 23 41 46 52 59 60 49 48 49 47 48 46 41 32 17 25 33 54 48 47 46 42 36 31 32 31
27 26 27 27 28 27 24 22 21 24 19 30 35 51 58 44 62 55 44 37 33 39 49 47 56 45 34 48 50 52 47 42 30 24 24 17 32 37 29 31 39 34 32 30 28
27 27 27 23 28 27 23 18 14 21 7 20 38 45 45 59 58 46 52 38 44 42 31 54 50 57 41 44 35 50 37 39 35 30 26 41 23 32 28 34 41 40 34 30 27
22 22 22 24 25 24 22 18 19 24 7 14 24 42 53 58 66 47 35 42 45 34 32 50 44 40 53 56 48 31 22 19 21 21 15 44 26 59 39 44 47 38 27 25 28
19 19 19 19 22 23 24 20 21 23 19 15 18 28 49 54 53 47 48 50 45 32 35 50 46 38 37 39 33 40 26 9 8 10 13 13 23 61 28 20 23 27 26 27 22
19 18 17 18 19 17 20 20 18 28 29 11 24 25 38 38 45 49 42 50 54 41 37 38 26 52 48 53 48 43 40 18 17 13 18 16 22 43 26 29 36 26 24 26 26
20 20 21 20 16 18 19 21 22 26 32 40 11 16 33 36 31 35 55 54 59 63 43 37 38 38 50 51 42 40 45 61 24 18 8 24 42 46 39 33 29 28 30 33 31
21 22 24 16 19 21 22 25 27 29 27 28 32 18 14 40 38 34 38 54 52 59 57 44 33 43 42 37 41 39 46 28 34 14 20 22 33 40 28 34 38 39 34 29 31
20 22 20 14 18 23 30 35 34 39 28 24 26 23 35 20 40 35 23 30 59 52 62 63 35 22 40 41 48 45 43 38 32 26 13 19 29 42 41 37 33 26 27 29 22
20 22 18 17 20 26 35 37 35 33 43 40 36 33 36 31 25 45 39 39 38 52 63 69 36 45 37 46 52 52 48 50 25 28 40 32 45 31 19 19 27 26 24 22 21
23 23 24 24 26 28 30 32 31 34 32 39 38 33 17 13 12 15 42 47 42 36 56 55 46 26 40 30 36 54 56 55 60 38 40 20 50 43 29 24 25 23 26 32 28
24 21 26 30 31 25 28 30 29 26 28 33 42 38 44 49 46 34 17 28 40 43 34 48 53 61 35 58 60 42 55 55 53 42 44 43 66 42 26 23 28 29 26 24 21
27 30 31 22 29 35 34 35 32 30 27 22 28 32 35 36 47 37 50 37 37 38 44 41 56 57 70 57 33 54 50 56 55 58 46 61 54 60 49 34 27 23 22 25 29
31 34 35 36 35 36 35 35 33 33 29 33 32 23 26 37 41 53 46 45 35 25 35 40 42 59 53 55 54 42 45 55 58 63 60 64 53 52 42 38 45 47 41 36 32
32 34 32 28 28 32 38 41 41 35 38 34 33 32 30 29 30 37 33 50 53 38 36 33 51 37 49 59 48 45 69 58 50 56 57 59 82 57 50 45 40 36 36 31 28
Wind_Direction
247 246 247 247 247 249 251 251 249 249 248 248 250 250 254 249 245 245 239 235 238 242 242 242 241 241 241 243 245 245 242 245 243 238 230 224 224 231 236 232 241 252 266 282 291
248 246 246 246 246 248 249 250 252 251 251 251 250 252 250 254 251 243 244 237 233 239 242 242 240 241 241 243 244 243 246 249 248 249 239 230 228 229 241 247 251 266 276 283 287
257 251 245 244 244 245 246 249 251 251 252 252 253 252 255 254 256 252 241 242 237 236 238 240 241 241 242 244 244 246 248 251 251 251 235 228 229 236 242 246 260 270 276 277 282
256 257 253 247 242 244 242 244 248 250 252 253 252 254 253 254 256 256 248 243 241 238 236 237 239 240 243 244 246 250 250 254 256 247 248 245 239 243 243 249 261 271 275 281 283
253 253 255 253 247 245 245 241 241 250 251 252 254 252 253 251 245 246 243 234 232 233 236 237 238 239 241 247 248 250 251 255 257 253 249 250 249 258 244 255 272 273 279 282 287
252 252 251 253 253 244 244 241 245 243 251 253 253 254 254 253 254 243 245 242 232 232 227 234 237 239 242 244 245 250 250 253 254 254 253 254 256 257 248 271 271 277 283 290 300
252 250 249 249 250 250 242 237 239 242 244 252 255 255 253 251 250 250 240 240 235 231 231 231 233 235 240 244 247 248 250 252 251 254 257 259 259 250 258 272 278 282 283 291 301
255 252 250 248 247 248 247 241 241 243 241 247 254 257 254 254 249 246 243 242 238 237 232 229 236 237 237 237 244 247 248 254 250 251 256 256 259 253 258 271 279 278 287 289 298
255 253 252 249 247 245 246 244 240 237 235 239 247 253 261 261 251 247 243 240 241 241 235 230 235 239 239 236 240 240 235 247 255 258 256 255 261 256 261 271 273 276 283 285 294
256 256 254 253 250 247 244 244 240 237 235 244 233 248 254 255 256 248 243 237 235 238 238 230 235 236 236 228 226 229 233 244 247 252 255 257 260 258 258 267 267 273 277 282 283
256 259 259 257 258 253 246 243 243 239 232 229 234 234 240 239 261 254 249 237 231 229 231 230 228 233 236 239 241 240 247 248 254 255 259 257 261 257 253 257 262 265 267 270 272
260 260 263 261 260 259 251 243 239 239 243 236 231 237 243 248 248 248 244 222 220 228 225 227 232 237 241 243 243 244 248 250 255 255 259 265 266 262 257 258 260 263 261 266 267
258 259 261 263 260 261 257 252 234 225 241 235 231 238 238 240 243 235 239 244 226 225 223 226 242 237 239 241 239 241 241 244 246 261 255 268 271 266 261 260 262 261 260 260 260
257 255 258 258 256 252 258 257 245 218 242 244 234 237 235 239 243 241 236 237 238 232 225 228 235 235 241 243 241 244 245 245 245 251 256 260 274 268 266 262 261 259 257 254 256
257 257 257 256 255 253 251 253 224 198 239 243 228 231 236 231 233 235 236 236 236 231 211 231 235 231 228 238 234 247 247 245 250 246 257 254 269 267 262 260 261 262 259 253 250
252 256 259 258 253 248 246 234 195 208 229 215 210 222 227 234 234 236 234 226 234 226 231 241 246 236 241 240 237 242 242 243 238 232 242 249 235 269 249 256 265 264 250 239 253
250 254 258 256 249 246 244 223 211 214 214 227 206 217 225 225 229 216 220 211 208 205 215 236 238 233 239 233 230 227 212 191 208 200 243 236 219 252 259 255 256 259 242 234 244
253 249 251 252 245 242 243 222 222 221 207 186 213 220 209 217 225 219 212 212 217 209 217 220 231 228 228 231 221 211 205 204 219 225 252 226 232 244 266 257 250 246 223 232 256
249 242 244 245 246 243 238 229 228 231 226 233 218 247 218 216 217 213 208 211 219 212 211 218 233 233 234 228 215 214 207 230 240 249 255 228 250 259 253 250 245 232 232 247 254
248 252 250 250 241 238 243 242 239 231 240 235 242 243 235 209 210 212 215 218 213 218 224 226 239 231 226 225 225 219 234 208 217 223 233 242 247 243 246 244 242 241 248 248 249
248 253 259 252 243 234 234 244 248 232 233 248 241 248 247 229 216 216 217 219 213 216 220 222 229 230 210 205 209 207 211 211 217 216 221 245 248 250 253 244 244 236 248 249 247
249 252 264 256 244 240 242 243 248 244 235 250 254 257 271 242 249 225 223 224 233 230 215 222 229 235 219 223 224 220 210 211 209 208 228 245 258 248 265 250 242 241 233 233 257
244 247 254 252 243 244 250 253 254 254 248 246 250 247 209 245 269 260 222 233 228 231 218 230 220 237 232 230 217 220 222 222 222 224 218 211 250 250 243 234 233 214 247 257 263
239 240 244 243 252 250 259 259 258 261 266 261 255 258 259 268 268 262 264 240 238 235 236 224 221 217 222 220 216 215 219 220 220 219 227 222 246 242 245 245 240 239 238 239 246
236 238 239 242 246 251 253 256 258 261 267 268 260 259 256 258 268 259 271 271 231 243 239 231 220 221 230 232 219 218 218 220 223 228 224 233 240 247 246 242 247 249 249 255 250
234 240 248 253 256 258 258 257 259 269 267 260 260 275 263 252 263 270 273 272 274 244 234 234 221 223 235 234 230 229 229 228 229 231 234 238 244 247 252 255 252 258 264 261 247
240 244 248 250 250 247 254 266 270 277 272 267 274 266 259 263 268 266 271 270 266 253 263 256 221 215 228 230 229 233 233 232 235 236 235 237 243 241 249 250 252 264 266 260 250
Height
3084 3087 3090 3093 3096 3098 3101 3103 3106 3108 3110 3111 3114 3116 3120 3121 3123 3127 3132 3136 3135 3138 3140 3142 3144 3145 3147 3148 3149 3150 3152 3150 3152 3155 3158 3159 3160 3160 3161 3164 3164 3165 3166 3167 3167
3074 3077 3081 3084 3087 3090 3094 3096 3099 3102 3104 3106 3108 3110 3112 3115 3118 3121 3129 3128 3130 3133 3136 3138 3140 3141 3143 3145 3146 3146 3146 3146 3149 3153 3155 3155 3156 3157 3158 3159 3161 3162 3162 3162 3162
3064 3067 3070 3074 3078 3082 3085 3090 3093 3095 3097 3100 3102 3104 3106 3108 3112 3119 3118 3122 3126 3128 3130 3133 3135 3137 3139 3140 3141 3141 3140 3143 3146 3149 3150 3151 3152 3153 3154 3156 3158 3158 3158 3158 3158
3054 3056 3059 3063 3067 3072 3077 3081 3084 3088 3090 3093 3095 3098 3100 3103 3109 3110 3112 3116 3120 3123 3125 3127 3130 3131 3134 3135 3137 3136 3138 3138 3141 3145 3146 3147 3149 3149 3150 3152 3153 3153 3152 3151 3150
3044 3047 3049 3053 3057 3061 3066 3070 3075 3080 3083 3086 3088 3090 3092 3094 3097 3106 3108 3109 3112 3116 3119 3121 3124 3126 3127 3129 3132 3131 3135 3134 3136 3138 3140 3141 3143 3143 3144 3147 3148 3146 3146 3146 3145
3034 3036 3039 3043 3047 3052 3056 3061 3066 3072 3076 3079 3080 3082 3083 3081 3097 3101 3105 3106 3108 3110 3112 3115 3118 3121 3120 3123 3124 3125 3129 3129 3130 3133 3134 3136 3137 3137 3140 3141 3140 3141 3141 3140 3140
3024 3026 3029 3032 3036 3041 3046 3052 3057 3062 3068 3070 3072 3073 3072 3073 3086 3090 3098 3102 3105 3106 3108 3110 3112 3114 3115 3117 3118 3119 3122 3123 3123 3128 3128 3131 3129 3129 3135 3133 3134 3134 3136 3136 3135
3013 3016 3019 3022 3025 3029 3035 3042 3047 3053 3060 3063 3062 3063 3056 3065 3077 3081 3090 3096 3100 3102 3104 3105 3106 3108 3109 3112 3112 3114 3116 3116 3120 3122 3122 3126 3119 3127 3128 3128 3128 3128 3129 3130 3130
3002 3004 3008 3012 3015 3020 3024 3030 3036 3044 3050 3054 3055 3055 3050 3054 3064 3075 3083 3087 3092 3094 3099 3100 3100 3102 3104 3107 3108 3106 3106 3111 3116 3116 3118 3118 3114 3121 3121 3122 3123 3123 3123 3124 3125
2992 2994 2998 3000 3005 3010 3015 3019 3023 3031 3039 3044 3044 3050 3041 3039 3053 3063 3073 3079 3083 3088 3089 3092 3093 3095 3095 3098 3092 3100 3103 3104 3107 3112 3110 3110 3107 3114 3116 3115 3116 3118 3118 3119 3119
2986 2988 2990 2993 2995 2999 3005 3010 3016 3019 3022 3026 3030 3034 3035 3039 3050 3054 3062 3069 3074 3078 3077 3081 3086 3078 3083 3088 3095 3100 3100 3098 3101 3107 3105 3103 3101 3105 3108 3107 3110 3111 3113 3113 3115
2981 2983 2984 2986 2989 2991 2995 2999 3005 3012 3013 3016 3023 3026 3032 3035 3041 3049 3052 3056 3058 3059 3071 3074 3066 3072 3084 3084 3092 3094 3094 3092 3096 3099 3100 3097 3090 3094 3097 3098 3101 3104 3106 3106 3107
2974 2977 2978 2980 2983 2986 2988 2992 2999 3004 3005 3006 3009 3012 3019 3029 3031 3041 3046 3049 3050 3053 3053 3056 3053 3072 3073 3076 3083 3082 3083 3089 3092 3094 3094 3093 3075 3082 3085 3088 3091 3095 3098 3099 3100
2968 2970 2971 2973 2977 2979 2983 2986 2991 2999 2999 2993 2998 2997 3004 3015 3016 3027 3035 3044 3044 3044 3049 3054 3058 3063 3064 3066 3075 3073 3080 3085 3087 3094 3089 3093 3064 3069 3073 3076 3080 3086 3088 3091 3092
2962 2963 2965 2966 2967 2973 2979 2982 2986 2995 2991 2981 2981 2988 2993 3000 3008 3011 3026 3031 3033 3038 3044 3036 3044 3051 3056 3055 3068 3063 3078 3079 3082 3084 3088 3079 3078 3054 3063 3064 3071 3076 3080 3082 3084
2956 2957 2959 2960 2963 2967 2971 2977 2983 2986 2969 2969 2967 2971 2980 2985 2992 3007 3014 3022 3028 3032 3034 3032 3041 3045 3044 3057 3059 3067 3074 3076 3077 3081 3078 3062 3077 3019 3050 3056 3061 3067 3071 3074 3076
2950 2952 2953 2955 2958 2960 2964 2971 2976 2968 2962 2963 2962 2964 2966 2972 2981 2992 2999 3004 3008 3019 3024 3020 3027 3035 3041 3048 3053 3058 3067 3071 3075 3072 3053 3058 3066 3005 3041 3044 3051 3057 3062 3065 3068
2944 2946 2947 2950 2952 2955 2958 2964 2959 2951 2955 2956 2960 2962 2963 2969 2971 2979 2989 2991 2998 3005 3012 3015 3018 3019 3023 3025 3033 3041 3051 3052 3051 3050 3046 3056 3042 3015 3031 3036 3042 3050 3055 3056 3058
2938 2940 2942 2944 2948 2949 2953 2952 2949 2949 2953 2953 2955 2954 2956 2961 2968 2970 2972 2971 2977 2989 3000 3002 3001 3006 3011 3020 3028 3029 3038 3030 3050 3046 3044 3040 3023 3020 3022 3028 3035 3041 3045 3047 3050
2933 2934 2935 2941 2943 2945 2946 2943 2944 2947 2950 2950 2949 2951 2948 2949 2956 2959 2964 2964 2970 2976 2985 2990 2994 2994 3000 3012 3019 3022 3027 3041 3040 3037 3035 3023 3017 3002 3011 3018 3025 3029 3034 3038 3041
2928 2928 2930 2935 2937 2938 2937 2936 2938 2941 2946 2945 2944 2943 2946 2946 2947 2947 2951 2956 2964 2970 2977 2981 2989 2988 2992 2991 2999 3010 3012 3021 3022 3022 3019 3014 3002 3001 3002 3012 3015 3020 3024 3028 3031
2922 2924 2926 2929 2931 2928 2924 2926 2931 2934 2940 2940 2939 2939 2939 2941 2938 2941 2943 2946 2952 2958 2961 2967 2978 2978 2979 2983 2987 2994 2999 3007 3006 3010 3007 3007 2986 2994 2998 3002 3008 3012 3017 3021 3023
2917 2919 2921 2922 2920 2920 2921 2922 2925 2928 2931 2933 2934 2936 2933 2934 2939 2933 2935 2941 2947 2949 2953 2960 2965 2971 2979 2982 2978 2984 2988 2990 2996 2997 2994 2996 2968 2991 2992 2998 3002 3004 3009 3012 3013
2913 2914 2914 2914 2914 2916 2917 2917 2919 2922 2923 2925 2926 2928 2928 2925 2931 2931 2926 2935 2941 2941 2947 2955 2952 2952 2946 2946 2956 2971 2976 2980 2985 2985 2979 2982 2964 2979 2984 2988 2994 2996 2999 3003 3006
2905 2904 2907 2906 2906 2909 2911 2910 2912 2916 2919 2920 2918 2919 2921 2921 2919 2928 2927 2925 2927 2935 2939 2943 2939 2944 2940 2947 2952 2951 2961 2966 2968 2967 2971 2964 2966 2970 2976 2983 2988 2990 2993 2996 2998
2898 2899 2900 2900 2901 2902 2903 2903 2905 2908 2911 2910 2909 2913 2914 2911 2914 2911 2920 2920 2922 2924 2929 2931 2924 2934 2931 2935 2946 2946 2952 2957 2957 2958 2960 2956 2961 2967 2969 2974 2974 2977 2984 2986 2988
2892 2894 2896 2892 2893 2893 2893 2893 2895 2900 2897 2899 2903 2908 2908 2909 2911 2913 2914 2910 2909 2911 2915 2921 2918 2920 2918 2923 2931 2934 2930 2935 2944 2946 2950 2950 2926 2964 2961 2961 2965 2970 2971 2974 2978